Retour au catalogue

USA 554

ActifMilitaireGEO
NORAD 65161·PAYLOAD·🇺🇸 United States

Lancé Aug 13, 2025 depuis Cape Canaveral Space Force Station

Loading…

TLE

PériméSource: Mike McCants

Époque: Dec 25, 2025, 20:13 UTC

1 65161U 25173B   25359.84271250 0.00000000  00000-0  00000-0 0    03
2 65161   2.8470  33.8717 0008930 181.1439 178.8561  0.98975314    00

Suivez USA 554 en temps réel avec AllMySat

Download on the App Store